This is the latest recevied weather packets stored in our database for station/object N6GPM. If no packets are shown the sender has not sent any weather packets the latest 10 day(s).
| Time | Temp. | Humidity | Pressure | Rain* | Wind** | Luminosity | Snow |
|---|---|---|---|---|---|---|---|
| 1787371138 | 29.44° C | 33% | 1020 hPa | 0 mm | - | 0 W/m² | - |
| 1787370833 | 29.44° C | 32% | 1019.7 hPa | 0 mm | - | 0 W/m² | - |
| 1787370529 | 29.44° C | 32% | 1019.8 hPa | 0 mm | - | 0 W/m² | - |
| 1787370223 | 29.44° C | 32% | 1019.8 hPa | 0 mm | - | 0 W/m² | - |
| 1787369918 | 29.44° C | 31% | 1019.7 hPa | 0 mm | - | 0 W/m² | - |
| 1787369615 | 30° C | 31% | 1019.7 hPa | 0 mm | - | 0 W/m² | - |
| 1787369312 | 30° C | 31% | 1019.8 hPa | 0 mm | - | 0 W/m² | - |
| 1787369008 | 30° C | 30% | 1019.6 hPa | 0 mm | - | 0 W/m² | - |
| 1787368706 | 30° C | 30% | 1019.5 hPa | 0 mm | - | 0 W/m² | - |
| 1787368401 | 30° C | 30% | 1019.5 hPa | 0 mm | - | 0 W/m² | - |
| 1787368098 | 30° C | 29% | 1019.3 hPa | 0 mm | - | 0 W/m² | - |
| 1787367793 | 30° C | 29% | 1019.2 hPa | 0 mm | - | 0 W/m² | - |
| 1787367488 | 30° C | 28% | 1019 hPa | 0 mm | - | 0 W/m² | - |
| 1787367183 | 30.56° C | 28% | 1019.2 hPa | 0 mm | - | 0 W/m² | - |
| 1787366883 | 30.56° C | 27% | 1019 hPa | 0 mm | - | 0 W/m² | - |
| 1787366576 | 30.56° C | 26% | 1018.9 hPa | 0 mm | - | 1 W/m² | - |
| 1787366271 | 30.56° C | 25% | 1019 hPa | 0 mm | - | 1 W/m² | - |
| 1787365968 | 31.11° C | 26% | 1018.9 hPa | 0 mm | - | 4 W/m² | - |
| 1787365662 | 31.11° C | 25% | 1018.9 hPa | 0 mm | - | 8 W/m² | - |
| 1787365358 | 31.67° C | 25% | 1018.8 hPa | 0 mm | - | 14 W/m² | - |
| 1787365053 | 31.67° C | 25% | 1018.8 hPa | 0 mm | - | 19 W/m² | - |
| 1787364750 | 31.67° C | 23% | 1018.6 hPa | 0 mm | - | 24 W/m² | - |
| 1787364446 | 32.22° C | 23% | 1018.7 hPa | 0 mm | - | 30 W/m² | - |
| 1787364146 | 32.22° C | 23% | 1018.6 hPa | 0 mm | - | 34 W/m² | - |
| 1787363845 | 32.22° C | 23% | 1018.6 hPa | 0 mm | - | 42 W/m² | - |
* Rain latest hour (hover to see other rain measurements)
** Current wind speed in m/s (hover to see current wind gust speed)